WLF2309 OMDB-LCLK

Flight info

Callsign WLF2309
Flight time 4h 44m
Altitude 33000
Route ANVIX L223 TARDI N629 BOTAM Y855 LAKLU/N0490F340 Q204 NALKI G652 TOKRA DCT ALROK DCT BOSOB DCT ITRUX Y511 PMA Z712 WEJ L677 DARAX/N0480F360 L677 GESON Q777 RASDA M28 BETID
Aircraft B77L/H-SDE1E2E3FGHIJ2J3J4J5M1RWXY/LB1D1

Departure

Time 2026-04-23 22:43
Airport Dubai International Airport (OMDB)

Arrival

Time 2026-04-24 03:28
Airport Larnaca International Airport (LCLK)
Time Latitude Longitude Altitude Speed Heading
2026-04-23 22:19 25.26035 55.36558 26 ft 0 kts 31°
2026-04-23 22:29 25.26034 55.36558 26 ft 0 kts 31°
2026-04-23 22:31 25.26034 55.36557 26 ft 1 kts 31°
2026-04-23 22:32 25.26015 55.36542 30 ft 4 kts 42°
2026-04-23 22:32 25.25996 55.36526 26 ft 1 kts 31°
2026-04-23 22:32 25.25977 55.36510 26 ft 4 kts 57°
2026-04-23 22:32 25.25972 55.36486 25 ft 4 kts 116°
2026-04-23 22:33 25.25985 55.36462 26 ft 4 kts 122°
2026-04-23 22:33 25.25989 55.36455 26 ft 0 kts 122°
2026-04-23 22:38 25.25956 55.36514 26 ft 19 kts 121°
2026-04-23 22:38 25.25875 55.36662 26 ft 23 kts 121°
2026-04-23 22:38 25.25791 55.36811 29 ft 13 kts 123°
2026-04-23 22:39 25.25716 55.36860 26 ft 15 kts 182°
2026-04-23 22:39 25.25650 55.36889 26 ft 17 kts 133°
2026-04-23 22:39 25.25573 55.37023 26 ft 24 kts 122°
2026-04-23 22:39 25.25472 55.37201 27 ft 30 kts 122°
2026-04-23 22:40 25.25350 55.37418 27 ft 36 kts 122°
2026-04-23 22:40 25.25210 55.37669 27 ft 40 kts 122°
2026-04-23 22:40 25.24983 55.38072 26 ft 19 kts 121°
2026-04-23 22:41 25.24925 55.38115 27 ft 1 kts 181°
2026-04-23 22:42 25.24865 55.38091 28 ft 13 kts 208°
2026-04-23 22:42 25.24824 55.38012 29 ft 14 kts 277°
2026-04-23 22:42 25.24907 55.37845 30 ft 41 kts 302°
2026-04-23 22:42 25.25168 55.37375 31 ft 103 kts 302°
2026-04-23 22:43 25.25646 55.36516 29 ft 157 kts 302°
2026-04-23 22:43 25.26286 55.35348 94 ft 191 kts 302°
2026-04-23 22:43 25.26937 55.34086 586 ft 191 kts 300°
2026-04-23 22:43 25.27578 55.32790 1049 ft 195 kts 300°
2026-04-23 22:44 25.28243 55.31448 1407 ft 204 kts 303°
2026-04-23 22:44 25.29021 55.30110 1811 ft 208 kts 300°
2026-04-23 22:44 25.29276 55.28559 2168 ft 211 kts 254°
2026-04-23 22:44 25.28650 55.27084 2564 ft 209 kts 241°
2026-04-23 22:45 25.27989 55.25654 3039 ft 209 kts 243°
2026-04-23 22:45 25.27358 55.24219 3489 ft 210 kts 244°
2026-04-23 22:45 25.26731 55.22771 3998 ft 209 kts 244°
2026-04-23 22:45 25.26100 55.21308 4490 ft 211 kts 245°
2026-04-23 22:46 25.25452 55.19797 4663 ft 229 kts 245°
2026-04-23 22:46 25.24747 55.18192 5075 ft 235 kts 239°
2026-04-23 22:46 25.23546 55.16953 5425 ft 245 kts 203°
2026-04-23 22:46 25.21840 55.16682 5832 ft 253 kts 178°
2026-04-23 22:47 25.20043 55.16860 6296 ft 258 kts 171°
2026-04-23 22:47 25.18433 55.17672 6805 ft 265 kts 139°
2026-04-23 22:47 25.17378 55.19336 7365 ft 267 kts 119°
2026-04-23 22:47 25.16518 55.21182 7840 ft 273 kts 120°
2026-04-23 22:48 25.15634 55.23038 8436 ft 273 kts 121°
2026-04-23 22:48 25.14746 55.24898 9059 ft 274 kts 121°
2026-04-23 22:48 25.13853 55.26761 9658 ft 277 kts 121°
2026-04-23 22:48 25.12949 55.28652 10175 ft 280 kts 121°
2026-04-23 22:49 25.12031 55.30561 10720 ft 283 kts 121°
2026-04-23 22:49 25.11100 55.32496 11274 ft 287 kts 121°
2026-04-23 22:49 25.10196 55.34476 11863 ft 292 kts 118°
2026-04-23 22:49 25.09360 55.36527 12492 ft 295 kts 117°
2026-04-23 22:50 25.08520 55.38607 13120 ft 299 kts 117°
2026-04-23 22:50 25.07660 55.40716 13723 ft 303 kts 117°
2026-04-23 22:50 25.06797 55.42857 14272 ft 307 kts 116°
2026-04-23 22:50 25.05947 55.45064 14669 ft 320 kts 115°
2026-04-23 22:51 25.05055 55.47402 14826 ft 341 kts 115°
2026-04-23 22:51 25.04107 55.49878 15027 ft 361 kts 115°
2026-04-23 22:51 25.03099 55.52499 15188 ft 382 kts 115°
2026-04-23 22:51 25.02028 55.55267 15347 ft 403 kts 115°
2026-04-23 22:52 25.00725 55.58080 15587 ft 418 kts 122°
2026-04-23 22:52 24.99182 55.60837 16038 ft 428 kts 124°
2026-04-23 22:52 24.97574 55.63633 16591 ft 435 kts 123°
2026-04-23 22:52 24.95986 55.66487 17231 ft 439 kts 122°
2026-04-23 22:53 24.94408 55.69390 17870 ft 443 kts 122°
2026-04-23 22:53 24.92751 55.72269 18416 ft 448 kts 126°
2026-04-23 22:53 24.90900 55.75047 18945 ft 451 kts 129°
2026-04-23 22:53 24.88987 55.77790 19537 ft 453 kts 129°
2026-04-23 22:54 24.87081 55.80563 20146 ft 455 kts 128°
2026-04-23 22:54 24.85195 55.83380 20721 ft 458 kts 128°
2026-04-23 22:54 24.83334 55.86187 21275 ft 461 kts 128°
2026-04-23 22:54 24.81424 55.89035 21852 ft 463 kts 128°
2026-04-23 22:55 24.79492 55.91890 22392 ft 466 kts 128°
2026-04-23 22:55 24.77504 55.94723 22910 ft 467 kts 133°
2026-04-23 22:55 24.75196 55.97250 23379 ft 469 kts 140°
2026-04-23 22:55 24.72722 55.99600 23789 ft 472 kts 141°
2026-04-23 22:56 24.70250 56.02002 24185 ft 476 kts 140°
2026-04-23 22:56 24.67808 56.04480 24588 ft 480 kts 139°
2026-04-23 22:56 24.65361 56.07002 24902 ft 483 kts 139°
2026-04-23 22:56 24.62899 56.09537 24865 ft 485 kts 139°
2026-04-23 22:57 24.60432 56.12066 24897 ft 484 kts 139°
2026-04-23 22:57 24.57974 56.14595 24880 ft 484 kts 138°
2026-04-23 22:57 24.55666 56.17230 24880 ft 485 kts 133°
2026-04-23 22:57 24.53448 56.20083 24902 ft 485 kts 132°
2026-04-23 22:58 24.51266 56.22905 24892 ft 485 kts 132°
2026-04-23 22:58 24.49075 56.25724 24970 ft 485 kts 132°
2026-04-23 22:58 24.46900 56.28512 25312 ft 489 kts 133°
2026-04-23 22:58 24.44670 56.31357 25695 ft 493 kts 133°
2026-04-23 22:59 24.42389 56.34256 26073 ft 497 kts 133°
2026-04-23 22:59 24.40147 56.37102 26429 ft 501 kts 133°
2026-04-23 22:59 24.37859 56.40004 26795 ft 505 kts 133°
2026-04-23 22:59 24.35554 56.42927 27167 ft 508 kts 133°
2026-04-23 23:00 24.33236 56.45867 27538 ft 512 kts 133°
2026-04-23 23:00 24.30897 56.48832 27869 ft 515 kts 133°
2026-04-23 23:00 24.28629 56.51896 28212 ft 520 kts 128°
2026-04-23 23:00 24.26490 56.55115 28559 ft 524 kts 128°
2026-04-23 23:01 24.24360 56.58368 28900 ft 527 kts 127°
2026-04-23 23:01 24.22211 56.61652 29182 ft 531 kts 127°
2026-04-23 23:01 24.20040 56.64950 29472 ft 535 kts 128°
2026-04-23 23:01 24.17852 56.68254 29783 ft 537 kts 128°
2026-04-23 23:02 24.15653 56.71564 30154 ft 537 kts 128°
2026-04-23 23:02 24.13454 56.74866 30606 ft 535 kts 128°
2026-04-23 23:02 24.11265 56.78152 31086 ft 532 kts 128°
2026-04-23 23:02 24.09085 56.81424 31543 ft 530 kts 128°
2026-04-23 23:03 24.06866 56.84624 31883 ft 527 kts 134°
2026-04-23 23:03 24.04193 56.87342 32123 ft 524 kts 147°
2026-04-23 23:03 24.01091 56.89405 32427 ft 519 kts 158°
2026-04-23 23:03 23.97751 56.90818 32803 ft 510 kts 169°
2026-04-23 23:04 23.94301 56.91693 33124 ft 508 kts 171°
2026-04-23 23:04 23.90852 56.92542 33430 ft 508 kts 171°
2026-04-23 23:04 23.87411 56.93410 33796 ft 508 kts 171°
2026-04-23 23:05 23.80499 56.95221 33870 ft 511 kts 170°
2026-04-23 23:05 23.73619 56.97069 33885 ft 507 kts 170°
2026-04-23 23:06 23.66826 56.98896 33883 ft 505 kts 170°
2026-04-23 23:06 23.60003 57.00721 33907 ft 504 kts 170°
2026-04-23 23:07 23.53185 57.02542 33912 ft 505 kts 170°
2026-04-23 23:07 23.46350 57.04367 33925 ft 507 kts 170°
2026-04-23 23:08 23.39456 57.05861 33918 ft 504 kts 180°
2026-04-23 23:08 23.32506 57.05604 33935 ft 498 kts 193°
2026-04-23 23:09 23.25752 57.04004 33938 ft 497 kts 197°
2026-04-23 23:09 23.18989 57.02339 33943 ft 498 kts 196°
2026-04-23 23:10 23.12211 57.00739 33930 ft 499 kts 196°
2026-04-23 23:10 23.05415 56.99156 33933 ft 499 kts 196°
2026-04-23 23:11 22.98672 56.97577 33910 ft 498 kts 197°
2026-04-23 23:11 22.91903 56.95960 33919 ft 498 kts 197°
2026-04-23 23:12 22.85255 56.94059 33892 ft 485 kts 211°
2026-04-23 23:12 22.82487 56.92068 33915 ft 474 kts 226°
2026-04-23 23:12 22.80299 56.89440 33895 ft 467 kts 239°
2026-04-23 23:13 22.77295 56.83278 33888 ft 463 kts 247°
2026-04-23 23:13 22.74392 56.77024 33891 ft 466 kts 246°
2026-04-23 23:14 22.71414 56.70757 33866 ft 469 kts 246°
2026-04-23 23:14 22.68397 56.64476 33870 ft 470 kts 246°
2026-04-23 23:15 22.65393 56.58239 33861 ft 470 kts 246°
2026-04-23 23:15 22.62373 56.51970 33841 ft 469 kts 246°
2026-04-23 23:16 22.59365 56.45729 33848 ft 466 kts 246°
2026-04-23 23:16 22.56370 56.39518 33844 ft 465 kts 246°
2026-04-23 23:17 22.53380 56.33336 33843 ft 464 kts 246°
2026-04-23 23:17 22.50382 56.27162 33836 ft 463 kts 246°
2026-04-23 23:18 22.47388 56.21001 33839 ft 462 kts 246°
2026-04-23 23:18 22.44418 56.14890 33839 ft 463 kts 246°
2026-04-23 23:19 22.41415 56.08717 33831 ft 463 kts 246°
2026-04-23 23:19 22.38412 56.02552 33835 ft 464 kts 246°
2026-04-23 23:20 22.35395 55.96391 33827 ft 464 kts 245°
2026-04-23 23:20 22.32362 55.90227 33827 ft 465 kts 245°
2026-04-23 23:21 22.29343 55.84095 33825 ft 465 kts 245°
2026-04-23 23:21 22.26305 55.77925 33811 ft 466 kts 245°
2026-04-23 23:22 22.23262 55.71745 33818 ft 466 kts 246°
2026-04-23 23:22 22.20222 55.65568 33814 ft 466 kts 246°
2026-04-23 23:23 22.17296 55.59339 33810 ft 463 kts 252°
2026-04-23 23:23 22.15502 55.52733 33816 ft 457 kts 261°
2026-04-23 23:24 22.14765 55.45952 33818 ft 455 kts 268°
2026-04-23 23:24 22.14252 55.39155 33810 ft 455 kts 268°
2026-04-23 23:25 22.13720 55.32352 33812 ft 455 kts 267°
2026-04-23 23:25 22.13171 55.25596 33811 ft 454 kts 267°
2026-04-23 23:26 22.12605 55.18805 33814 ft 454 kts 267°
2026-04-23 23:26 22.12037 55.12020 33806 ft 454 kts 267°
2026-04-23 23:27 22.11559 55.06329 33814 ft 454 kts 267°
2026-04-23 23:27 22.10991 54.99587 33803 ft 454 kts 267°
2026-04-23 23:28 22.10417 54.92802 33819 ft 454 kts 267°
2026-04-23 23:28 22.09838 54.86027 33812 ft 454 kts 267°
2026-04-23 23:29 22.09258 54.79254 33810 ft 453 kts 267°
2026-04-23 23:29 22.08676 54.72494 33816 ft 453 kts 266°
2026-04-23 23:30 22.08092 54.65730 33817 ft 453 kts 266°
2026-04-23 23:30 22.07504 54.58958 33818 ft 454 kts 266°
2026-04-23 23:31 22.06919 54.52217 33809 ft 454 kts 266°
2026-04-23 23:31 22.06320 54.45428 33812 ft 454 kts 266°
2026-04-23 23:32 22.05723 54.38653 33814 ft 454 kts 266°
2026-04-23 23:32 22.05124 54.31869 33813 ft 454 kts 266°
2026-04-23 23:33 22.04519 54.25097 33815 ft 454 kts 266°
2026-04-23 23:33 22.03916 54.18328 33814 ft 453 kts 266°
2026-04-23 23:34 22.03308 54.11574 33815 ft 452 kts 266°
2026-04-23 23:34 22.02701 54.04835 33816 ft 452 kts 266°
2026-04-23 23:35 22.02092 53.98096 33821 ft 452 kts 266°
2026-04-23 23:35 22.01482 53.91405 33819 ft 451 kts 266°
2026-04-23 23:36 22.00865 53.84667 33814 ft 451 kts 266°
2026-04-23 23:36 22.00243 53.77897 33817 ft 451 kts 266°
2026-04-23 23:37 21.99627 53.71211 33805 ft 452 kts 266°
2026-04-23 23:37 21.99002 53.64468 33825 ft 453 kts 266°
2026-04-23 23:38 21.98372 53.57711 33824 ft 454 kts 266°
2026-04-23 23:38 21.97739 53.50942 33822 ft 455 kts 266°
2026-04-23 23:39 21.97103 53.44152 33821 ft 455 kts 266°
2026-04-23 23:39 21.96462 53.37357 33818 ft 456 kts 266°
2026-04-23 23:40 21.95816 53.30554 33820 ft 456 kts 266°
2026-04-23 23:40 21.95172 53.23808 33815 ft 456 kts 265°
2026-04-23 23:41 21.94523 53.17016 33819 ft 455 kts 265°
2026-04-23 23:41 21.93868 53.10187 33823 ft 455 kts 265°
2026-04-23 23:42 21.93221 53.03458 33819 ft 455 kts 265°
2026-04-23 23:42 21.92563 52.96689 33826 ft 455 kts 265°
2026-04-23 23:43 21.91903 52.89911 33822 ft 455 kts 265°
2026-04-23 23:43 21.91241 52.83137 33822 ft 455 kts 265°
2026-04-23 23:44 21.90578 52.76367 33816 ft 455 kts 265°
2026-04-23 23:44 21.90458 52.69584 33822 ft 453 kts 275°
2026-04-23 23:45 21.91338 52.62881 33833 ft 453 kts 281°
2026-04-23 23:45 21.92595 52.56236 33844 ft 453 kts 281°
2026-04-23 23:46 21.93843 52.49593 33821 ft 453 kts 281°
2026-04-23 23:46 21.95073 52.42941 33829 ft 452 kts 281°
2026-04-23 23:47 21.96290 52.36289 33824 ft 452 kts 281°
2026-04-23 23:47 21.97494 52.29682 33833 ft 452 kts 281°
2026-04-23 23:48 21.98702 52.23035 33835 ft 452 kts 281°
2026-04-23 23:48 21.99912 52.16381 33835 ft 452 kts 281°
2026-04-23 23:49 22.01723 52.06384 33840 ft 453 kts 281°
2026-04-23 23:49 22.02927 51.99719 33848 ft 453 kts 281°
2026-04-23 23:50 22.04130 51.93037 33842 ft 454 kts 281°
2026-04-23 23:50 22.05330 51.86358 33846 ft 454 kts 281°
2026-04-23 23:51 22.06528 51.79675 33838 ft 454 kts 281°
2026-04-23 23:51 22.07724 51.72985 33845 ft 454 kts 281°
2026-04-23 23:52 22.08919 51.66295 33853 ft 454 kts 281°
2026-04-23 23:52 22.10108 51.59598 33851 ft 455 kts 281°
2026-04-23 23:53 22.11298 51.52896 33850 ft 455 kts 281°
2026-04-23 23:53 22.12481 51.46223 33857 ft 456 kts 281°
2026-04-23 23:54 22.13666 51.39507 33862 ft 456 kts 280°
2026-04-23 23:54 22.14854 51.32774 33849 ft 457 kts 280°
2026-04-23 23:55 22.16040 51.26038 33857 ft 457 kts 280°
2026-04-23 23:55 22.17219 51.19301 33863 ft 457 kts 280°
2026-04-23 23:56 22.18396 51.12558 33858 ft 457 kts 280°
2026-04-23 23:56 22.19575 51.05802 33860 ft 457 kts 280°
2026-04-23 23:57 22.20748 50.99059 33865 ft 457 kts 280°
2026-04-23 23:57 22.21911 50.92357 33866 ft 457 kts 280°
2026-04-23 23:58 22.23080 50.85605 33878 ft 457 kts 280°
2026-04-23 23:58 22.24244 50.78865 33865 ft 457 kts 280°
2026-04-23 23:59 22.25406 50.72125 33864 ft 457 kts 279°
2026-04-23 23:59 22.26563 50.65394 33869 ft 456 kts 279°
2026-04-24 00:00 22.27716 50.58661 33868 ft 456 kts 280°
2026-04-24 00:00 22.28868 50.51922 33874 ft 456 kts 280°
2026-04-24 00:01 22.30008 50.45232 33868 ft 456 kts 279°
2026-04-24 00:01 22.31151 50.38495 33875 ft 456 kts 279°
2026-04-24 00:02 22.32298 50.31750 33890 ft 457 kts 279°
2026-04-24 00:02 22.33441 50.24991 33879 ft 458 kts 279°
2026-04-24 00:03 22.34584 50.18215 33879 ft 458 kts 279°
2026-04-24 00:03 22.35723 50.11441 33880 ft 459 kts 279°
2026-04-24 00:04 22.36860 50.04661 33888 ft 459 kts 279°
2026-04-24 00:04 22.37996 49.97872 33888 ft 459 kts 279°
2026-04-24 00:05 22.39124 49.91115 33880 ft 460 kts 279°
2026-04-24 00:05 22.40260 49.84289 33894 ft 462 kts 279°
2026-04-24 00:06 22.41395 49.77459 33891 ft 462 kts 279°
2026-04-24 00:06 22.42528 49.70624 33890 ft 462 kts 279°
2026-04-24 00:07 22.43658 49.63785 33895 ft 462 kts 279°
2026-04-24 00:07 22.44783 49.56947 33897 ft 462 kts 279°
2026-04-24 00:08 22.45904 49.50115 33901 ft 461 kts 279°
2026-04-24 00:08 22.47020 49.43291 33898 ft 460 kts 279°
2026-04-24 00:09 22.48124 49.36530 33903 ft 460 kts 279°
2026-04-24 00:09 22.49235 49.29726 33906 ft 459 kts 279°
2026-04-24 00:10 22.50340 49.22926 33917 ft 459 kts 279°
2026-04-24 00:10 22.51443 49.16119 33912 ft 459 kts 279°
2026-04-24 00:11 22.52541 49.09324 33911 ft 459 kts 279°
2026-04-24 00:11 22.53636 49.02514 33906 ft 459 kts 279°
2026-04-24 00:12 22.54728 48.95713 33918 ft 459 kts 279°
2026-04-24 00:12 22.55822 48.88901 33918 ft 459 kts 279°
2026-04-24 00:13 22.56903 48.82139 33921 ft 459 kts 278°
2026-04-24 00:13 22.57988 48.75322 33918 ft 460 kts 278°
2026-04-24 00:14 22.59072 48.68500 33928 ft 459 kts 278°
2026-04-24 00:14 22.60154 48.61695 33923 ft 459 kts 278°
2026-04-24 00:15 22.61048 48.56024 33919 ft 459 kts 278°
2026-04-24 00:15 22.62120 48.49202 33919 ft 459 kts 278°
2026-04-24 00:16 22.63193 48.42381 33935 ft 459 kts 278°
2026-04-24 00:16 22.64265 48.35560 33932 ft 460 kts 278°
2026-04-24 00:17 22.65333 48.28724 33924 ft 461 kts 278°
2026-04-24 00:17 22.66399 48.21876 33934 ft 461 kts 277°
2026-04-24 00:18 22.67462 48.15033 33930 ft 461 kts 277°
2026-04-24 00:18 22.68523 48.08186 33927 ft 461 kts 277°
2026-04-24 00:19 22.69449 48.01342 33933 ft 458 kts 274°
2026-04-24 00:19 22.70006 47.94504 33928 ft 458 kts 273°
2026-04-24 00:20 22.70551 47.87652 33933 ft 456 kts 273°
2026-04-24 00:20 22.71114 47.80803 33938 ft 456 kts 273°
2026-04-24 00:21 22.71680 47.73956 33951 ft 457 kts 273°
2026-04-24 00:21 22.72244 47.67103 33943 ft 457 kts 273°
2026-04-24 00:22 22.72799 47.60257 33941 ft 457 kts 273°
2026-04-24 00:22 22.73355 47.53404 33944 ft 457 kts 273°
2026-04-24 00:23 22.73906 47.46547 33945 ft 457 kts 273°
2026-04-24 00:23 22.74453 47.39706 33949 ft 456 kts 273°
2026-04-24 00:24 22.75002 47.32859 33944 ft 456 kts 273°
2026-04-24 00:24 22.75546 47.26004 33951 ft 457 kts 273°
2026-04-24 00:25 22.76084 47.19194 33965 ft 457 kts 273°
2026-04-24 00:25 22.76628 47.12327 33952 ft 458 kts 273°
2026-04-24 00:26 22.77180 47.05450 33965 ft 459 kts 273°
2026-04-24 00:26 22.77730 46.98566 33956 ft 459 kts 272°
2026-04-24 00:27 22.78273 46.91680 33954 ft 458 kts 272°
2026-04-24 00:27 22.78816 46.84803 33960 ft 458 kts 272°
2026-04-24 00:28 22.79354 46.77924 33968 ft 458 kts 272°
2026-04-24 00:28 22.79884 46.71042 33971 ft 458 kts 272°
2026-04-24 00:29 22.80418 46.64157 33961 ft 458 kts 272°
2026-04-24 00:29 22.80947 46.57277 33972 ft 458 kts 272°
2026-04-24 00:30 22.81471 46.50439 33973 ft 458 kts 272°
2026-04-24 00:30 22.81994 46.43558 33968 ft 458 kts 272°
2026-04-24 00:31 22.82512 46.36687 33958 ft 457 kts 272°
2026-04-24 00:31 22.83018 46.29827 33950 ft 456 kts 272°
2026-04-24 00:32 22.83519 46.22970 33958 ft 456 kts 272°
2026-04-24 00:32 22.84021 46.16120 33939 ft 456 kts 272°
2026-04-24 00:33 22.84521 46.09273 33957 ft 456 kts 272°
2026-04-24 00:33 22.85017 46.02406 33939 ft 456 kts 272°
2026-04-24 00:34 22.85513 45.95542 33944 ft 456 kts 272°
2026-04-24 00:34 22.86001 45.88678 33943 ft 457 kts 272°
2026-04-24 00:35 22.86488 45.81801 33933 ft 457 kts 272°
2026-04-24 00:35 22.86970 45.74975 33927 ft 457 kts 272°
2026-04-24 00:36 22.87453 45.68098 33941 ft 457 kts 272°
2026-04-24 00:36 22.87930 45.61219 33938 ft 458 kts 272°
2026-04-24 00:37 22.88407 45.54321 33938 ft 459 kts 272°
2026-04-24 00:37 22.88885 45.47432 33938 ft 459 kts 272°
2026-04-24 00:38 22.89356 45.40534 33938 ft 458 kts 272°
2026-04-24 00:38 22.89823 45.33643 33947 ft 457 kts 272°
2026-04-24 00:39 22.90308 45.26754 33940 ft 456 kts 272°
2026-04-24 00:39 22.90742 45.19921 33936 ft 453 kts 272°
2026-04-24 00:40 22.91223 45.13177 33942 ft 449 kts 272°
2026-04-24 00:40 22.91645 45.06410 33945 ft 450 kts 272°
2026-04-24 00:41 22.92090 44.99631 33940 ft 450 kts 272°
2026-04-24 00:41 22.92536 44.92850 33955 ft 452 kts 272°
2026-04-24 00:42 22.92981 44.86037 33944 ft 453 kts 272°
2026-04-24 00:42 22.93425 44.79197 33938 ft 455 kts 272°
2026-04-24 00:43 22.93866 44.72334 33939 ft 456 kts 272°
2026-04-24 00:43 22.94791 44.65502 33939 ft 459 kts 280°
2026-04-24 00:44 22.96687 44.58870 33934 ft 461 kts 286°
2026-04-24 00:44 22.98763 44.52276 33939 ft 461 kts 285°
2026-04-24 00:45 23.00806 44.45724 33934 ft 461 kts 285°
2026-04-24 00:45 23.02842 44.39131 33939 ft 460 kts 285°
2026-04-24 00:46 23.04856 44.32521 33936 ft 460 kts 286°
2026-04-24 00:46 23.06944 44.25941 33923 ft 459 kts 285°
2026-04-24 00:47 23.08932 44.19361 33933 ft 457 kts 285°
2026-04-24 00:47 23.10918 44.12840 33918 ft 453 kts 285°
2026-04-24 00:48 23.12892 44.06333 33924 ft 453 kts 285°
2026-04-24 00:48 23.14876 43.99829 33937 ft 453 kts 285°
2026-04-24 00:49 23.16867 43.93326 33930 ft 454 kts 284°
2026-04-24 00:49 23.18837 43.86820 33934 ft 453 kts 284°
2026-04-24 00:50 23.20807 43.80315 33941 ft 453 kts 284°
2026-04-24 00:50 23.22784 43.73802 33941 ft 454 kts 284°
2026-04-24 00:51 23.24748 43.67321 33935 ft 454 kts 284°
2026-04-24 00:51 23.26717 43.60791 33952 ft 454 kts 284°
2026-04-24 00:52 23.28682 43.54271 33942 ft 453 kts 284°
2026-04-24 00:52 23.30638 43.47771 33950 ft 452 kts 284°
2026-04-24 00:53 23.32580 43.41290 33968 ft 450 kts 284°
2026-04-24 00:53 23.34522 43.34808 33950 ft 449 kts 284°
2026-04-24 00:54 23.36453 43.28350 33960 ft 449 kts 284°
2026-04-24 00:54 23.38379 43.21891 33962 ft 449 kts 284°
2026-04-24 00:55 23.40306 43.15425 33962 ft 449 kts 283°
2026-04-24 00:55 23.42225 43.08959 33969 ft 449 kts 283°
2026-04-24 00:56 23.44139 43.02476 33969 ft 450 kts 283°
2026-04-24 00:56 23.46054 42.95979 33970 ft 451 kts 283°
2026-04-24 00:57 23.47967 42.89478 33966 ft 451 kts 283°
2026-04-24 00:58 23.50834 42.79723 33961 ft 450 kts 283°
2026-04-24 00:58 23.52744 42.73215 33958 ft 450 kts 283°
2026-04-24 00:59 23.54662 42.66726 33958 ft 450 kts 283°
2026-04-24 00:59 23.56577 42.60237 33965 ft 449 kts 283°
2026-04-24 01:00 23.58484 42.53764 33952 ft 448 kts 283°
2026-04-24 01:00 23.60380 42.47312 33954 ft 446 kts 283°
2026-04-24 01:01 23.62266 42.40880 33955 ft 445 kts 283°
2026-04-24 01:01 23.63828 42.35550 33955 ft 444 kts 283°
2026-04-24 01:02 23.66004 42.28106 33949 ft 443 kts 283°
2026-04-24 01:02 23.67854 42.21703 33946 ft 442 kts 283°
2026-04-24 01:03 23.69395 42.16340 33956 ft 442 kts 282°
2026-04-24 01:03 23.71223 42.09969 33952 ft 442 kts 282°
2026-04-24 01:04 23.73065 42.03562 33954 ft 443 kts 282°
2026-04-24 01:04 23.74908 41.97141 33964 ft 443 kts 282°
2026-04-24 01:05 23.76774 41.90717 33950 ft 445 kts 282°
2026-04-24 01:05 23.78656 41.84263 33946 ft 446 kts 282°
2026-04-24 01:06 23.80525 41.77820 33938 ft 445 kts 282°
2026-04-24 01:06 23.82378 41.71368 33931 ft 445 kts 282°
2026-04-24 01:07 23.84236 41.64936 33931 ft 443 kts 282°
2026-04-24 01:07 23.86053 41.58589 33932 ft 439 kts 282°
2026-04-24 01:08 23.87862 41.52239 33924 ft 438 kts 282°
2026-04-24 01:08 23.89676 41.45864 33934 ft 441 kts 282°
2026-04-24 01:09 23.91503 41.39429 33941 ft 443 kts 282°
2026-04-24 01:09 23.93345 41.32978 33925 ft 446 kts 282°
2026-04-24 01:10 23.95191 41.26471 33922 ft 448 kts 282°
2026-04-24 01:10 23.97036 41.19955 33924 ft 448 kts 282°
2026-04-24 01:11 23.98861 41.13497 33921 ft 447 kts 282°
2026-04-24 01:11 24.00689 41.07018 33920 ft 445 kts 282°
2026-04-24 01:12 24.02509 41.00554 33918 ft 443 kts 282°
2026-04-24 01:12 24.04315 40.94122 33909 ft 442 kts 282°
2026-04-24 01:13 24.06116 40.87704 33920 ft 441 kts 282°
2026-04-24 01:13 24.07913 40.81276 33918 ft 442 kts 282°
2026-04-24 01:14 24.09713 40.74832 33917 ft 443 kts 282°
2026-04-24 01:14 24.11513 40.68373 33921 ft 444 kts 282°
2026-04-24 01:15 24.13311 40.61909 33908 ft 444 kts 282°
2026-04-24 01:15 24.15112 40.55430 33916 ft 445 kts 282°
2026-04-24 01:16 24.17309 40.49047 33925 ft 453 kts 290°
2026-04-24 01:16 24.20221 40.42950 33924 ft 456 kts 291°
2026-04-24 01:17 24.23206 40.36822 33909 ft 456 kts 291°
2026-04-24 01:17 24.26160 40.30686 33915 ft 455 kts 291°
2026-04-24 01:18 24.29099 40.24528 33917 ft 455 kts 291°
2026-04-24 01:18 24.32027 40.18377 33911 ft 455 kts 291°
2026-04-24 01:19 24.34948 40.12231 33916 ft 455 kts 291°
2026-04-24 01:19 24.37872 40.06086 33915 ft 454 kts 291°
2026-04-24 01:20 24.40792 39.99940 33919 ft 454 kts 290°
2026-04-24 01:20 24.43697 39.93794 33903 ft 453 kts 291°
2026-04-24 01:21 24.46604 39.87654 33915 ft 453 kts 291°
2026-04-24 01:21 24.49511 39.81497 33921 ft 455 kts 291°
2026-04-24 01:22 24.52418 39.75374 33925 ft 456 kts 292°
2026-04-24 01:22 24.56317 39.69720 33916 ft 472 kts 306°
2026-04-24 01:23 24.61381 39.65001 33937 ft 483 kts 316°
2026-04-24 01:23 24.66873 39.60713 33917 ft 484 kts 316°
2026-04-24 01:24 24.72346 39.56418 33913 ft 483 kts 316°
2026-04-24 01:24 24.77793 39.52086 33889 ft 483 kts 316°
2026-04-24 01:25 24.83223 39.47741 33888 ft 482 kts 316°
2026-04-24 01:25 24.88659 39.43382 33973 ft 484 kts 315°
2026-04-24 01:25 24.91378 39.41198 34327 ft 482 kts 315°
2026-04-24 01:26 24.94073 39.39037 34820 ft 477 kts 315°
2026-04-24 01:26 24.96741 39.36904 35364 ft 471 kts 315°
2026-04-24 01:26 24.99380 39.34791 35869 ft 467 kts 314°
2026-04-24 01:27 25.04661 39.30530 35886 ft 471 kts 314°
2026-04-24 01:27 25.09946 39.26279 35875 ft 467 kts 314°
2026-04-24 01:28 25.15171 39.22068 35884 ft 464 kts 314°
2026-04-24 01:28 25.20236 39.17723 35883 ft 453 kts 306°
2026-04-24 01:29 25.24402 39.12624 35885 ft 443 kts 297°
2026-04-24 01:29 25.27851 39.07017 35883 ft 443 kts 294°
2026-04-24 01:30 25.31189 39.01313 35858 ft 442 kts 292°
2026-04-24 01:30 25.34450 38.95565 35860 ft 443 kts 293°
2026-04-24 01:31 25.37760 38.89822 35851 ft 442 kts 294°
2026-04-24 01:31 25.41100 38.84123 35842 ft 439 kts 293°
2026-04-24 01:32 25.44391 38.78474 35836 ft 436 kts 293°
2026-04-24 01:32 25.47669 38.72828 35833 ft 436 kts 293°
2026-04-24 01:33 25.50963 38.67176 35822 ft 437 kts 293°
2026-04-24 01:33 25.54227 38.61553 35813 ft 438 kts 293°
2026-04-24 01:34 25.57518 38.55868 35808 ft 438 kts 293°
2026-04-24 01:34 25.60806 38.50185 35809 ft 439 kts 293°
2026-04-24 01:35 25.64101 38.44488 35799 ft 439 kts 293°
2026-04-24 01:35 25.67389 38.38791 35792 ft 439 kts 293°
2026-04-24 01:36 25.70685 38.33087 35799 ft 439 kts 293°
2026-04-24 01:36 25.73970 38.27392 35797 ft 438 kts 293°
2026-04-24 01:37 25.77248 38.21699 35790 ft 437 kts 293°
2026-04-24 01:37 25.80494 38.16054 35799 ft 436 kts 293°
2026-04-24 01:38 25.83747 38.10390 35771 ft 434 kts 293°
2026-04-24 01:38 25.86988 38.04737 35772 ft 433 kts 293°
2026-04-24 01:39 25.90220 37.99094 35816 ft 433 kts 293°
2026-04-24 01:39 25.93456 37.93431 35812 ft 435 kts 294°
2026-04-24 01:40 25.96702 37.87756 35800 ft 435 kts 293°
2026-04-24 01:40 25.99500 37.81909 35801 ft 422 kts 283°
2026-04-24 01:41 26.01227 37.75804 35818 ft 412 kts 276°
2026-04-24 01:41 26.02133 37.69513 35821 ft 409 kts 272°
2026-04-24 01:42 26.02954 37.63311 35815 ft 410 kts 272°
2026-04-24 01:42 26.03799 37.56977 35806 ft 418 kts 272°
2026-04-24 01:43 26.04718 37.50576 35819 ft 418 kts 272°
2026-04-24 01:43 26.05550 37.44189 35829 ft 418 kts 272°
2026-04-24 01:44 26.06378 37.37762 35806 ft 420 kts 272°
2026-04-24 01:44 26.07222 37.31322 35789 ft 421 kts 272°
2026-04-24 01:45 26.08072 37.24895 35779 ft 419 kts 272°
2026-04-24 01:45 26.08919 37.18504 35783 ft 417 kts 271°
2026-04-24 01:46 26.09751 37.12128 35768 ft 415 kts 271°
2026-04-24 01:46 26.10586 37.05776 35767 ft 415 kts 271°
2026-04-24 01:47 26.11413 36.99428 35764 ft 414 kts 271°
2026-04-24 01:47 26.12232 36.93098 35761 ft 414 kts 271°
2026-04-24 01:48 26.13050 36.86764 35754 ft 413 kts 271°
2026-04-24 01:48 26.13861 36.80473 35752 ft 414 kts 271°
2026-04-24 01:49 26.14676 36.74130 35774 ft 415 kts 271°
2026-04-24 01:49 26.15490 36.67761 35761 ft 416 kts 271°
2026-04-24 01:50 26.16305 36.61374 35751 ft 417 kts 271°
2026-04-24 01:50 26.17122 36.54981 35748 ft 418 kts 273°
2026-04-24 01:51 26.18643 36.49784 35775 ft 434 kts 287°
2026-04-24 01:51 26.21897 36.43990 35731 ft 454 kts 302°
2026-04-24 01:52 26.26292 36.38893 35749 ft 457 kts 305°
2026-04-24 01:52 26.30789 36.33889 35756 ft 457 kts 305°
2026-04-24 01:53 26.35231 36.28847 35757 ft 454 kts 304°
2026-04-24 01:53 26.39629 36.23781 35772 ft 455 kts 304°
2026-04-24 01:54 26.44026 36.18702 35764 ft 454 kts 304°
2026-04-24 01:54 26.48394 36.13640 35753 ft 452 kts 304°
2026-04-24 01:55 26.52761 36.08583 35754 ft 452 kts 304°
2026-04-24 01:55 26.57106 36.03547 35747 ft 449 kts 304°
2026-04-24 01:56 26.61398 35.98555 35751 ft 448 kts 304°
2026-04-24 01:56 26.65717 35.93523 35784 ft 449 kts 304°
2026-04-24 01:57 26.70085 35.88447 35771 ft 452 kts 304°
2026-04-24 01:57 26.74408 35.83410 35762 ft 452 kts 304°
2026-04-24 01:58 26.78770 35.78320 35758 ft 452 kts 304°
2026-04-24 01:58 26.83128 35.73233 35775 ft 452 kts 304°
2026-04-24 01:59 26.87476 35.68150 35758 ft 452 kts 304°
2026-04-24 01:59 26.91822 35.63065 35762 ft 451 kts 304°
2026-04-24 02:00 26.96160 35.57978 35760 ft 450 kts 304°
2026-04-24 02:00 27.00480 35.52908 35764 ft 449 kts 304°
2026-04-24 02:01 27.04797 35.47836 35789 ft 449 kts 304°
2026-04-24 02:01 27.09116 35.42755 35770 ft 450 kts 304°
2026-04-24 02:02 27.13428 35.37680 35764 ft 449 kts 304°
2026-04-24 02:02 27.17705 35.32635 35769 ft 448 kts 304°
2026-04-24 02:03 27.24136 35.25037 35769 ft 447 kts 304°
2026-04-24 02:03 27.28421 35.19970 35778 ft 447 kts 304°
2026-04-24 02:04 27.32709 35.14892 35776 ft 447 kts 304°
2026-04-24 02:04 27.36985 35.09821 35771 ft 447 kts 304°
2026-04-24 02:05 27.41264 35.04742 35799 ft 447 kts 304°
2026-04-24 02:05 27.45535 34.99664 35791 ft 446 kts 304°
2026-04-24 02:06 27.49805 34.94584 35777 ft 446 kts 304°
2026-04-24 02:06 27.54222 34.89634 35776 ft 450 kts 307°
2026-04-24 02:07 27.58811 34.84820 35776 ft 450 kts 308°
2026-04-24 02:07 27.63391 34.80018 35781 ft 450 kts 307°
2026-04-24 02:08 27.67968 34.75182 35782 ft 450 kts 307°
2026-04-24 02:08 27.72527 34.70348 35799 ft 450 kts 307°
2026-04-24 02:09 27.77084 34.65506 35811 ft 450 kts 307°
2026-04-24 02:09 27.81653 34.60647 35800 ft 451 kts 308°
2026-04-24 02:10 27.86223 34.55782 35800 ft 452 kts 308°
2026-04-24 02:10 27.90802 34.50901 35802 ft 453 kts 308°
2026-04-24 02:11 27.95360 34.46039 35811 ft 453 kts 308°
2026-04-24 02:11 27.99920 34.41105 35810 ft 451 kts 305°
2026-04-24 02:12 28.03919 34.35720 35803 ft 446 kts 301°
2026-04-24 02:12 28.07821 34.30257 35804 ft 447 kts 301°
2026-04-24 02:13 28.11743 34.24794 35820 ft 447 kts 301°
2026-04-24 02:13 28.15683 34.19324 35870 ft 448 kts 302°
2026-04-24 02:14 28.19630 34.13849 35846 ft 449 kts 302°
2026-04-24 02:14 28.23590 34.08351 35867 ft 451 kts 302°
2026-04-24 02:15 28.27560 34.02823 35851 ft 452 kts 302°
2026-04-24 02:15 28.31509 33.97324 35864 ft 452 kts 302°
2026-04-24 02:16 28.35480 33.91783 35869 ft 452 kts 302°
2026-04-24 02:16 28.39445 33.86236 35858 ft 452 kts 302°
2026-04-24 02:17 28.43402 33.80704 35856 ft 450 kts 302°
2026-04-24 02:17 28.47334 33.75201 35849 ft 447 kts 302°
2026-04-24 02:18 28.51238 33.69724 35862 ft 444 kts 302°
2026-04-24 02:18 28.55117 33.64271 35860 ft 443 kts 302°
2026-04-24 02:19 28.58948 33.58873 35854 ft 442 kts 302°
2026-04-24 02:19 28.62725 33.53545 35871 ft 444 kts 302°
2026-04-24 02:20 28.66612 33.48063 35875 ft 446 kts 302°
2026-04-24 02:20 28.70526 33.42544 35868 ft 448 kts 302°
2026-04-24 02:21 28.74452 33.37005 35869 ft 449 kts 302°
2026-04-24 02:21 28.78377 33.31454 35867 ft 450 kts 302°
2026-04-24 02:22 28.82278 33.25933 35870 ft 450 kts 302°
2026-04-24 02:22 28.86196 33.20376 35876 ft 449 kts 302°
2026-04-24 02:23 28.90104 33.14821 35874 ft 449 kts 302°
2026-04-24 02:23 28.94012 33.09267 35878 ft 448 kts 302°
2026-04-24 02:24 28.97910 33.03721 35875 ft 447 kts 302°
2026-04-24 02:24 29.01800 32.98177 35876 ft 447 kts 302°
2026-04-24 02:25 29.05682 32.92636 35887 ft 446 kts 302°
2026-04-24 02:25 29.09536 32.87126 35893 ft 446 kts 302°
2026-04-24 02:26 29.13438 32.81540 35888 ft 447 kts 302°
2026-04-24 02:26 29.17294 32.76011 35889 ft 448 kts 302°
2026-04-24 02:27 29.21182 32.70432 35898 ft 449 kts 302°
2026-04-24 02:27 29.25081 32.64833 35897 ft 450 kts 302°
2026-04-24 02:28 29.28979 32.59220 35906 ft 450 kts 302°
2026-04-24 02:28 29.32857 32.53581 35903 ft 451 kts 302°
2026-04-24 02:29 29.36725 32.47928 35917 ft 451 kts 302°
2026-04-24 02:29 29.40596 32.42271 35913 ft 450 kts 302°
2026-04-24 02:30 29.44457 32.36622 35907 ft 450 kts 302°
2026-04-24 02:30 29.48316 32.30974 35919 ft 449 kts 301°
2026-04-24 02:31 29.52168 32.25327 35915 ft 449 kts 301°
2026-04-24 02:31 29.56006 32.19696 35944 ft 446 kts 301°
2026-04-24 02:32 29.59802 32.14109 35925 ft 446 kts 301°
2026-04-24 02:32 29.63624 32.08481 35923 ft 447 kts 301°
2026-04-24 02:33 29.67453 32.02835 35925 ft 448 kts 301°
2026-04-24 02:33 29.71290 31.97169 35926 ft 450 kts 301°
2026-04-24 02:34 29.75141 31.91477 35941 ft 451 kts 301°
2026-04-24 02:34 29.78990 31.85767 35933 ft 451 kts 301°
2026-04-24 02:35 29.82723 31.79979 35919 ft 450 kts 300°
2026-04-24 02:35 29.86434 31.74176 35920 ft 449 kts 300°
2026-04-24 02:36 29.90471 31.68672 35925 ft 459 kts 315°
2026-04-24 02:36 29.93187 31.66671 35919 ft 470 kts 327°
2026-04-24 02:36 29.96261 31.65280 35898 ft 482 kts 340°
2026-04-24 02:37 30.02933 31.64048 35929 ft 488 kts 345°
2026-04-24 02:37 30.09674 31.62980 35918 ft 490 kts 345°
2026-04-24 02:38 30.16419 31.61829 35919 ft 490 kts 345°
2026-04-24 02:38 30.23152 31.60624 35913 ft 489 kts 344°
2026-04-24 02:39 30.29830 31.59416 35917 ft 489 kts 344°
2026-04-24 02:39 30.36553 31.58200 35928 ft 489 kts 344°
2026-04-24 02:40 30.43268 31.56986 35919 ft 488 kts 344°
2026-04-24 02:40 30.49966 31.55775 35917 ft 486 kts 344°
2026-04-24 02:41 30.56645 31.54567 35918 ft 485 kts 344°
2026-04-24 02:41 30.63305 31.53359 35928 ft 484 kts 344°
2026-04-24 02:42 30.68830 31.52359 35924 ft 483 kts 344°
2026-04-24 02:42 30.75463 31.51155 35924 ft 482 kts 344°
2026-04-24 02:43 30.82080 31.49953 35924 ft 481 kts 344°
2026-04-24 02:43 30.88686 31.48750 35921 ft 480 kts 344°
2026-04-24 02:44 30.95290 31.47550 35925 ft 479 kts 344°
2026-04-24 02:44 31.01873 31.46351 35927 ft 479 kts 344°
2026-04-24 02:45 31.08456 31.45148 35964 ft 479 kts 344°
2026-04-24 02:45 31.14887 31.43972 35935 ft 479 kts 343°
2026-04-24 02:46 31.21457 31.42768 35930 ft 478 kts 344°
2026-04-24 02:46 31.28026 31.41561 35927 ft 478 kts 343°
2026-04-24 02:47 31.34589 31.40330 35961 ft 477 kts 343°
2026-04-24 02:47 31.41109 31.39104 35940 ft 477 kts 343°
2026-04-24 02:48 31.47663 31.37873 35925 ft 476 kts 343°
2026-04-24 02:48 31.54200 31.36645 35937 ft 475 kts 343°
2026-04-24 02:49 31.60807 31.35772 35946 ft 480 kts 348°
2026-04-24 02:49 31.67462 31.35144 35935 ft 480 kts 348°
2026-04-24 02:50 31.74131 31.34490 35938 ft 480 kts 348°
2026-04-24 02:50 31.80782 31.33802 35936 ft 480 kts 347°
2026-04-24 02:51 31.87430 31.33114 35938 ft 480 kts 348°
2026-04-24 02:51 31.94089 31.32419 35941 ft 480 kts 347°
2026-04-24 02:52 32.00746 31.31720 35940 ft 480 kts 347°
2026-04-24 02:52 32.07405 31.31021 35964 ft 481 kts 348°
2026-04-24 02:53 32.14074 31.30327 35944 ft 481 kts 348°
2026-04-24 02:53 32.20704 31.29626 35944 ft 482 kts 348°
2026-04-24 02:54 32.27391 31.28903 35940 ft 482 kts 347°
2026-04-24 02:54 32.34075 31.28177 35952 ft 482 kts 348°
2026-04-24 02:55 32.40758 31.27451 35944 ft 482 kts 348°
2026-04-24 02:55 32.47438 31.26727 35939 ft 482 kts 348°
2026-04-24 02:56 32.54105 31.25939 35940 ft 479 kts 343°
2026-04-24 02:56 32.60464 31.23943 35961 ft 468 kts 333°
2026-04-24 02:57 32.66314 31.20751 35944 ft 462 kts 327°
2026-04-24 02:57 32.72059 31.17319 35941 ft 463 kts 327°
2026-04-24 02:58 32.77795 31.13928 35940 ft 463 kts 327°
2026-04-24 02:58 32.83582 31.10535 35960 ft 464 kts 327°
2026-04-24 02:59 32.89379 31.07137 35938 ft 465 kts 327°
2026-04-24 02:59 32.95178 31.03731 35943 ft 465 kts 327°
2026-04-24 03:00 33.00981 31.00318 35946 ft 465 kts 327°
2026-04-24 03:00 33.03972 30.98837 35928 ft 472 kts 339°
2026-04-24 03:00 33.07277 30.98382 35948 ft 488 kts 357°
2026-04-24 03:01 33.10663 30.99121 35960 ft 504 kts 14°
2026-04-24 03:01 33.13841 31.00968 35948 ft 515 kts 30°
2026-04-24 03:01 33.16538 31.03817 35935 ft 522 kts 46°
2026-04-24 03:01 33.18755 31.07252 35928 ft 523 kts 51°
2026-04-24 03:02 33.23241 31.14089 35934 ft 524 kts 48°
2026-04-24 03:02 33.27896 31.20813 35957 ft 526 kts 47°
2026-04-24 03:03 33.32600 31.27555 35941 ft 529 kts 47°
2026-04-24 03:03 33.37300 31.34339 35946 ft 530 kts 47°
2026-04-24 03:04 33.41963 31.41107 35933 ft 531 kts 48°
2026-04-24 03:04 33.46687 31.47977 35018 ft 544 kts 47°
2026-04-24 03:05 33.49089 31.51473 34249 ft 543 kts 47°
2026-04-24 03:05 33.51488 31.54971 33334 ft 543 kts 48°
2026-04-24 03:05 33.53881 31.58465 32424 ft 542 kts 47°
2026-04-24 03:05 33.56273 31.61962 31522 ft 542 kts 47°
2026-04-24 03:06 33.58666 31.65461 30620 ft 542 kts 47°
2026-04-24 03:06 33.61058 31.68961 29810 ft 541 kts 47°
2026-04-24 03:06 33.63423 31.72426 29133 ft 534 kts 47°
2026-04-24 03:06 33.65764 31.75860 28521 ft 528 kts 47°
2026-04-24 03:07 33.68073 31.79253 27928 ft 522 kts 47°
2026-04-24 03:07 33.70361 31.82613 27335 ft 516 kts 47°
2026-04-24 03:07 33.72617 31.85930 26772 ft 511 kts 48°
2026-04-24 03:07 33.74827 31.89180 26237 ft 506 kts 47°
2026-04-24 03:08 33.77071 31.92484 25670 ft 501 kts 48°
2026-04-24 03:08 33.81436 31.98920 24571 ft 493 kts 48°
2026-04-24 03:08 33.83570 32.02068 24047 ft 490 kts 48°
2026-04-24 03:09 33.85715 32.05236 23480 ft 487 kts 48°
2026-04-24 03:09 33.87839 32.08390 22832 ft 483 kts 48°
2026-04-24 03:09 33.89927 32.11538 22287 ft 479 kts 49°
2026-04-24 03:09 33.91984 32.14671 21763 ft 474 kts 49°
2026-04-24 03:10 33.94016 32.17776 21243 ft 469 kts 49°
2026-04-24 03:10 33.96028 32.20851 20727 ft 465 kts 49°
2026-04-24 03:10 33.98021 32.23895 20227 ft 461 kts 49°
2026-04-24 03:10 33.99997 32.26910 19725 ft 457 kts 49°
2026-04-24 03:11 34.01960 32.29903 19225 ft 453 kts 49°
2026-04-24 03:11 34.03903 32.32868 18736 ft 449 kts 49°
2026-04-24 03:11 34.05830 32.35810 18227 ft 445 kts 49°
2026-04-24 03:11 34.07740 32.38731 17661 ft 441 kts 49°
2026-04-24 03:12 34.09634 32.41630 17136 ft 437 kts 50°
2026-04-24 03:12 34.11501 32.44490 16648 ft 432 kts 50°
2026-04-24 03:12 34.13348 32.47322 16141 ft 427 kts 50°
2026-04-24 03:12 34.15151 32.50087 15675 ft 422 kts 50°
2026-04-24 03:13 34.16954 32.52854 15199 ft 417 kts 50°
2026-04-24 03:13 34.18739 32.55598 14727 ft 412 kts 50°
2026-04-24 03:13 34.20500 32.58307 14270 ft 408 kts 50°
2026-04-24 03:13 34.22244 32.60990 13790 ft 404 kts 50°
2026-04-24 03:14 34.23971 32.63650 13283 ft 400 kts 50°
2026-04-24 03:14 34.25676 32.66279 12792 ft 395 kts 50°
2026-04-24 03:14 34.27361 32.68878 12315 ft 390 kts 50°
2026-04-24 03:14 34.29020 32.71439 11872 ft 385 kts 50°
2026-04-24 03:15 34.30661 32.73973 11425 ft 381 kts 50°
2026-04-24 03:15 34.32291 32.76505 10918 ft 383 kts 50°
2026-04-24 03:15 34.33932 32.79059 10517 ft 384 kts 50°
2026-04-24 03:15 34.35560 32.81596 10427 ft 376 kts 50°
2026-04-24 03:16 34.37145 32.84069 10362 ft 368 kts 50°
2026-04-24 03:16 34.38701 32.86493 10311 ft 360 kts 50°
2026-04-24 03:16 34.40219 32.88863 10248 ft 353 kts 50°
2026-04-24 03:16 34.41706 32.91183 10202 ft 344 kts 50°
2026-04-24 03:17 34.43147 32.93436 10086 ft 333 kts 50°
2026-04-24 03:17 34.44540 32.95614 9942 ft 322 kts 50°
2026-04-24 03:17 34.45878 32.97702 9787 ft 311 kts 50°
2026-04-24 03:17 34.47201 32.99756 9371 ft 309 kts 50°
2026-04-24 03:18 34.48500 33.01773 9032 ft 295 kts 50°
2026-04-24 03:18 34.49747 33.03711 8749 ft 288 kts 50°
2026-04-24 03:18 34.50973 33.05614 8459 ft 285 kts 50°
2026-04-24 03:18 34.52191 33.07504 8187 ft 285 kts 50°
2026-04-24 03:19 34.53411 33.09401 7925 ft 285 kts 50°
2026-04-24 03:19 34.54629 33.11297 7626 ft 285 kts 50°
2026-04-24 03:19 34.55850 33.13199 7346 ft 285 kts 50°
2026-04-24 03:19 34.57070 33.15101 7069 ft 285 kts 50°
2026-04-24 03:20 34.58285 33.16996 6786 ft 283 kts 50°
2026-04-24 03:20 34.59479 33.18862 6502 ft 276 kts 50°
2026-04-24 03:20 34.60648 33.20686 6231 ft 272 kts 50°
2026-04-24 03:20 34.61807 33.22497 5993 ft 270 kts 50°
2026-04-24 03:21 34.62968 33.24310 5698 ft 273 kts 50°
2026-04-24 03:21 34.64136 33.26135 5406 ft 274 kts 50°
2026-04-24 03:21 34.65195 33.28043 5127 ft 272 kts 64°
2026-04-24 03:21 34.65864 33.30186 4879 ft 271 kts 70°
2026-04-24 03:22 34.66459 33.32365 4609 ft 272 kts 70°
2026-04-24 03:22 34.67063 33.34511 4415 ft 266 kts 69°
2026-04-24 03:22 34.67670 33.36607 4087 ft 260 kts 69°
2026-04-24 03:22 34.68493 33.38483 3830 ft 245 kts 51°
2026-04-24 03:23 34.69556 33.40007 3638 ft 235 kts 47°
2026-04-24 03:23 34.70616 33.41468 3448 ft 225 kts 47°
2026-04-24 03:23 34.71618 33.42879 3261 ft 216 kts 48°
2026-04-24 03:23 34.72592 33.44267 3108 ft 215 kts 48°
2026-04-24 03:24 34.73577 33.45631 2921 ft 214 kts 45°
2026-04-24 03:24 34.74629 33.46904 2753 ft 212 kts 43°
2026-04-24 03:24 34.75655 33.48129 2541 ft 201 kts 43°
2026-04-24 03:24 34.76622 33.49294 2385 ft 192 kts 44°
2026-04-24 03:25 34.77577 33.50451 2266 ft 193 kts 44°
2026-04-24 03:25 34.78511 33.51588 2119 ft 189 kts 44°
2026-04-24 03:25 34.79441 33.52717 1936 ft 187 kts 45°
2026-04-24 03:25 34.80358 33.53831 1697 ft 184 kts 45°
2026-04-24 03:26 34.81215 33.54874 1450 ft 163 kts 44°
2026-04-24 03:26 34.81977 33.55811 1175 ft 150 kts 45°
2026-04-24 03:26 34.82691 33.56705 976 ft 146 kts 44°
2026-04-24 03:26 34.83420 33.57585 830 ft 149 kts 43°
2026-04-24 03:27 34.84156 33.58478 665 ft 150 kts 44°
2026-04-24 03:27 34.84880 33.59367 462 ft 146 kts 44°
2026-04-24 03:27 34.85599 33.60230 262 ft 144 kts 44°
2026-04-24 03:27 34.86302 33.61084 99 ft 143 kts 44°
2026-04-24 03:28 34.87001 33.61936 29 ft 133 kts 44°
2026-04-24 03:28 34.87526 33.62575 27 ft 80 kts 45°
2026-04-24 03:28 34.87785 33.62889 31 ft 27 kts 45°
2026-04-24 03:28 34.87887 33.62874 29 ft 17 kts 315°
2026-04-24 03:29 34.87950 33.62794 30 ft 10 kts 305°
2026-04-24 03:29 34.87936 33.62721 28 ft 10 kts 229°
2026-04-24 03:29 34.87888 33.62661 28 ft 10 kts 225°
2026-04-24 03:29 34.87837 33.62599 27 ft 11 kts 224°
2026-04-24 03:30 34.87775 33.62525 27 ft 15 kts 225°
2026-04-24 03:30 34.87676 33.62403 27 ft 26 kts 226°
2026-04-24 03:30 34.87528 33.62221 25 ft 31 kts 225°
2026-04-24 03:30 34.87381 33.62043 26 ft 30 kts 225°
2026-04-24 03:31 34.87233 33.61864 30 ft 30 kts 224°
2026-04-24 03:31 34.87087 33.61683 31 ft 30 kts 226°
2026-04-24 03:31 34.86942 33.61501 23 ft 30 kts 225°
2026-04-24 03:31 34.86793 33.61324 23 ft 30 kts 224°
2026-04-24 03:32 34.86664 33.61166 30 ft 21 kts 226°
2026-04-24 03:32 34.86653 33.61044 28 ft 13 kts 274°
2026-04-24 03:32 34.86661 33.60943 29 ft 13 kts 309°
2026-04-24 03:32 34.86671 33.60885 30 ft 7 kts 239°
2026-04-24 03:33 34.86649 33.60854 25 ft 3 kts 229°
2026-04-24 03:33 34.86643 33.60846 28 ft 1 kts 227°
2026-04-24 03:33 34.86640 33.60843 25 ft 0 kts 226°